Weather reports worldwide

Advertisment
Alghero, Italy (16520): temperature & dewpoint: 16.07.2019 04:00:00 - 22.07.2019 04:00:00 (CEST)Alghero, Italy (16520): wind speed: 16.07.2019 04:00:00 - 22.07.2019 04:00:00 (CEST)Alghero, Italy (16520): wind direction: 16.07.2019 04:00:00 - 22.07.2019 04:00:00 (CEST)Alghero, Italy (16520): reduced air pressure: 16.07.2019 04:00:00 - 22.07.2019 04:00:00 (CEST)Alghero, Italy (16520): visibility: 16.07.2019 04:00:00 - 22.07.2019 04:00:00 (CEST)Alghero, Italy (16520): precipitation: 16.07.2019 04:00:00 - 22.07.2019 04:00:00 (CEST)
Date & Time tt [°C] td [°C] ff [km/h] ff [kn] dd ppp [hPa] vv [km] rr [mm]
22.07.2019 04:00:00 - - - - - - - -
22.07.2019 03:00:00 21,0 20,0 4 2 ENE - 10 -
22.07.2019 02:00:00 21,5 20,0 2 1 - 1021,4 10 -
22.07.2019 01:00:00 22,0 20,0 2 1 - - 10 -
22.07.2019 00:00:00 23,0 20,0 5 3 ENE - 10 -
21.07.2019 23:00:00 24,2 19,9 9 5 ENE 1021,5 10 0,0
21.07.2019 22:00:00 26,0 20,0 8 4 NE - 10 -
21.07.2019 21:00:00 28,0 21,0 13 7 ENE - 10 -
21.07.2019 20:00:00 29,4 19,5 18 10 ENE 1019,7 10 -
21.07.2019 19:00:00 33,0 17,0 18 10 ENE - 10 -
21.07.2019 18:00:00 34,0 16,0 16 9 ENE - 10 -
21.07.2019 17:00:00 33,9 15,7 15 8 E 1019,2 10 0,0
21.07.2019 16:00:00 33,0 21,0 8 4 - - 10 -
21.07.2019 15:00:00 32,0 19,0 13 7 SW - 10 -
21.07.2019 14:00:00 31,9 22,2 11 6 WSW 1020,0 10 -
21.07.2019 13:00:00 32,0 20,0 13 7 SSW - 10 -
21.07.2019 12:00:00 31,0 19,0 15 8 SW - 10 -
21.07.2019 11:00:00 30,8 16,1 5 3 - 1020,0 10 0,0
21.07.2019 10:00:00 29,0 16,0 5 3 S - 10 -
21.07.2019 09:00:00 26,0 17,0 4 2 - - 10 -
21.07.2019 08:00:00 22,0 17,0 4 2 - - 10 -
21.07.2019 07:00:00 18,0 17,0 2 1 - - 10 -
21.07.2019 06:00:00 19,0 18,0 5 3 E - 10 -
21.07.2019 05:00:00 19,5 17,8 2 1 - 1019,4 10 0,0
21.07.2019 04:00:00 20,0 18,0 4 2 E - 10 -
21.07.2019 03:00:00 21,0 19,0 2 1 - - 10 -
21.07.2019 02:00:00 22,0 20,0 0 0 N 1019,1 10 -
21.07.2019 01:00:00 23,0 19,0 2 1 - - 10 -
21.07.2019 00:00:00 24,0 20,0 4 2 NW - 10 -
20.07.2019 23:00:00 23,8 19,4 4 2 - 1018,7 10 0,0
20.07.2019 22:00:00 26,0 16,0 8 4 E - 10 -
20.07.2019 21:00:00 29,0 15,0 5 3 NE - 10 -
20.07.2019 20:00:00 29,6 20,3 5 3 - 1017,7 10 -
20.07.2019 19:00:00 30,0 18,0 13 7 WNW - 10 -
20.07.2019 18:00:00 31,0 16,0 15 8 NW - 10 -
20.07.2019 17:00:00 31,7 15,6 16 9 NW 1017,6 10 0,0
20.07.2019 16:00:00 31,0 15,0 16 9 NW - 10 -
20.07.2019 15:00:00 31,0 17,0 15 8 NW - 10 -
20.07.2019 14:00:00 32,9 15,5 13 7 W 1017,6 10 -
20.07.2019 13:00:00 32,0 14,0 13 7 SW - 10 -
20.07.2019 12:00:00 30,0 14,0 11 6 SW - 10 -
20.07.2019 11:00:00 29,3 15,4 16 9 SW 1017,7 10 0,0
20.07.2019 10:00:00 28,0 17,0 4 2 - - 10 -
20.07.2019 09:00:00 24,0 18,0 2 1 - - 10 -
20.07.2019 08:00:00 21,6 16,9 2 1 - 1016,8 10 -
20.07.2019 07:00:00 18,0 17,0 4 2 ENE - 10 -
20.07.2019 06:00:00 17,0 17,0 0 0 N - 10 -
20.07.2019 05:00:00 17,2 16,4 4 2 NE 1016,2 10 0,0
20.07.2019 04:00:00 19,0 18,0 4 2 ENE - 10 -
20.07.2019 03:00:00 19,0 18,0 4 2 ENE - 10 -
20.07.2019 02:00:00 19,2 17,8 4 2 NNE 1016,5 10 -
20.07.2019 01:00:00 20,0 19,0 2 1 - - 10 -
20.07.2019 00:00:00 22,0 19,0 4 2 NE - 10 -
19.07.2019 23:00:00 22,4 18,9 5 3 NE 1016,7 10 0,0
19.07.2019 22:00:00 23,0 20,0 5 3 NNE - 10 -
19.07.2019 21:00:00 25,0 20,0 9 5 NNW - 10 -
19.07.2019 20:00:00 25,7 19,3 11 6 NNW 1015,9 10 -
19.07.2019 19:00:00 27,0 18,0 15 8 NW - 10 -
19.07.2019 18:00:00 28,0 18,0 16 9 NNW - 10 -
19.07.2019 17:00:00 27,8 16,5 18 10 NW 1015,9 10 0,0
19.07.2019 16:00:00 29,0 18,0 21 11 NW - 10 -
19.07.2019 15:00:00 29,0 17,0 21 11 NW - 10 -
19.07.2019 14:00:00 28,9 16,8 16 9 NW 1016,3 10 -
19.07.2019 13:00:00 30,0 14,0 11 6 WNW - 10 -
19.07.2019 12:00:00 29,0 17,0 9 5 - - 10 -
19.07.2019 11:00:00 27,7 17,9 11 6 N 1016,6 10 0,0
19.07.2019 10:00:00 27,0 19,0 9 5 NNW - 10 -
19.07.2019 09:00:00 24,0 20,0 5 3 SSW - 10 -
19.07.2019 08:00:00 20,8 18,9 4 2 - 1016,3 10 -
19.07.2019 07:00:00 17,0 17,0 2 1 - - 10 -
19.07.2019 06:00:00 18,0 17,0 2 1 ENE - 10 -
19.07.2019 05:00:00 17,9 17,5 2 1 - 1015,6 10 0,0
19.07.2019 04:00:00 18,0 18,0 2 1 - - 10 -
19.07.2019 03:00:00 19,0 19,0 4 2 W - 10 -
19.07.2019 02:00:00 19,6 19,1 2 1 S 1015,8 10 -
19.07.2019 01:00:00 21,0 20,0 2 1 - - 10 -
19.07.2019 00:00:00 21,0 21,0 2 1 - - 10 -
18.07.2019 23:00:00 22,0 21,3 4 2 - 1015,1 10 0,0
18.07.2019 22:00:00 23,0 22,0 4 2 - - 10 -
18.07.2019 21:00:00 24,0 21,0 9 5 NW - 10 -
18.07.2019 20:00:00 25,0 20,7 11 6 NW 1013,5 10 -
18.07.2019 19:00:00 26,0 20,0 13 7 NW - 10 -
18.07.2019 18:00:00 27,0 21,0 15 8 NW - 10 -
18.07.2019 17:00:00 28,4 20,7 18 10 W 1013,1 10 0,0
18.07.2019 16:00:00 28,0 22,0 22 12 SW - 10 -
18.07.2019 15:00:00 29,0 22,0 22 12 SW - 10 -
18.07.2019 14:00:00 27,5 21,4 21 11 WSW 1013,1 10 -
18.07.2019 13:00:00 - - - - - - - -
18.07.2019 12:00:00 27,0 21,0 15 8 WSW - 10 -
18.07.2019 11:00:00 26,3 20,6 18 10 SW 1013,0 10 0,0
18.07.2019 10:00:00 25,0 20,0 18 10 SW - 10 -
18.07.2019 09:00:00 24,0 20,0 16 9 SW - 10 -
18.07.2019 08:00:00 23,4 18,9 13 7 SW 1012,8 10 -
18.07.2019 07:00:00 19,0 18,0 4 2 - - 10 -
18.07.2019 06:00:00 19,0 17,0 4 2 S - 10 -
18.07.2019 05:00:00 19,2 17,3 4 2 ENE 1012,3 10 0,0
18.07.2019 04:00:00 19,0 18,0 0 0 N - 10 -
18.07.2019 03:00:00 19,0 17,0 4 2 - - 10 -
18.07.2019 02:00:00 19,7 17,9 2 1 WNW 1013,1 10 -
18.07.2019 01:00:00 21,0 18,0 4 2 - - 10 -
18.07.2019 00:00:00 21,0 18,0 4 2 - - 10 -
17.07.2019 23:00:00 21,4 18,4 2 1 - 1013,7 10 0,0
17.07.2019 22:00:00 23,0 18,0 4 2 - - 10 -
17.07.2019 21:00:00 24,0 18,0 5 3 NNW - 10 -
17.07.2019 20:00:00 24,7 18,4 11 6 NNW 1013,2 10 -
17.07.2019 19:00:00 25,0 18,0 11 6 NNW - 10 -
17.07.2019 18:00:00 26,0 18,0 15 8 NW - 10 -
17.07.2019 17:00:00 27,7 16,3 15 8 NNW 1013,6 - 0,0
17.07.2019 16:00:00 28,0 13,0 18 10 NNW - 10 -
17.07.2019 15:00:00 28,0 16,0 18 10 NNW - 10 -
17.07.2019 14:00:00 27,4 16,9 18 10 NNW 1014,1 10 -
17.07.2019 13:00:00 28,0 17,0 16 9 NNW - 10 -
17.07.2019 12:00:00 28,0 17,0 11 6 NNW - 10 -
17.07.2019 11:00:00 28,1 13,5 5 3 - 1014,9 10 0,0
17.07.2019 10:00:00 26,0 16,0 5 3 - - 10 -
17.07.2019 09:00:00 23,0 17,0 2 1 - - 10 -
17.07.2019 08:00:00 19,3 16,8 4 2 - 1014,8 10 -
17.07.2019 07:00:00 15,0 15,0 2 1 - - 6 -
17.07.2019 06:00:00 17,0 16,0 5 3 E - 10 -
17.07.2019 05:00:00 17,1 16,5 2 1 - 1014,6 10 0,0
17.07.2019 04:00:00 17,0 17,0 2 1 - - 10 -
17.07.2019 03:00:00 19,0 18,0 5 3 E - 10 -
17.07.2019 02:00:00 19,1 17,3 8 4 E 1015,4 10 -
17.07.2019 01:00:00 21,0 18,0 8 4 NE - 10 -
17.07.2019 00:00:00 21,0 18,0 9 5 NE - 10 -
16.07.2019 23:00:00 21,9 18,4 9 5 NE 1015,2 10 0,0
16.07.2019 22:00:00 23,0 15,0 5 3 NNE - 10 -
16.07.2019 21:00:00 25,0 15,0 11 6 NE - 10 -
16.07.2019 20:00:00 27,0 14,3 11 6 NE 1013,7 10 -
16.07.2019 19:00:00 28,0 16,0 15 8 N - 10 -
16.07.2019 18:00:00 29,0 17,0 15 8 NNW - 10 -
16.07.2019 17:00:00 27,8 17,4 21 11 NW 1013,3 10 0,0
16.07.2019 16:00:00 28,0 18,0 22 12 NW - 10 -
16.07.2019 15:00:00 30,0 13,0 16 9 NE - 10 -
16.07.2019 14:00:00 29,3 14,2 18 10 E 1013,0 10 -
16.07.2019 13:00:00 29,0 15,0 11 6 ENE - 10 -
16.07.2019 12:00:00 29,0 15,0 11 6 E - 10 -
16.07.2019 11:00:00 26,9 15,9 16 9 E 1012,4 10 0,0
16.07.2019 10:00:00 26,0 15,0 22 12 ENE - 10 -
16.07.2019 09:00:00 24,0 17,0 16 9 E - 10 -
16.07.2019 08:00:00 22,6 18,8 5 3 ESE 1011,5 10 -
16.07.2019 07:00:00 22,0 18,0 5 3 E - 10 -
16.07.2019 06:00:00 22,0 19,0 9 5 NE - 10 -
16.07.2019 05:00:00 20,9 18,7 8 4 NE 1008,8 10 0,0
16.07.2019 04:00:00 21,0 18,0 5 3 NE - 10 -

tt = temperature
td = dewpoint
ff = wind speed
dd = wind direction
ppp = reduced air pressure
vv = visibility
rr = precipitation

Next stations